map of KGWW home
KGWW - Airport
Location
City:  Goldsboro, North Carolina, United States
Name:Wayne Executive Jetport Airport
ICAO:KGWW
FAA LID:GWW

Details
Type:Airport (Airfield)
Use:Public/Civil
Latitude:3527'38"N (35.460556)
Longitude:7757'54"W (-77.964916)
Datum:WGS 1984
Elevation:133 ft (41 m)
Variation:9.63W (WMM2015 magnetic declination)
-0.04 annual change
Runways:1
Longest:5500 × 100 ft (1676 × 30.5 m), paved

Time
Time Zone:UTC-5 (DST-4)
Local Time:

Weather
METAR:KGWW 221640Z AUTO 24007KT 10SM SCT030 SCT050 BKN090 28/22 A3013 RMK AO2 T02750217

Related Locations
Nearby:
Farthest:YAUG: 11695 mi / 18821 km
Augusta [Augusta Airport], WA, AU

Find:

   beyond  
but within

Other Information
Maps:
NOTAMs:
Links:
Sources:

  
flag of United States
flag of North Carolina
  

Sectional Chart

Flight Planning
at skyvector.com

Satellite Image

Google Maps Satellite view

 

Copyright © 2004-2018 Karl L. Swartz. All rights reserved.
The Great Circle Mapper name and logo are trademarks of the Great Circle Mapper.
All other trademarks mentioned herein belong to their respective owners.
Please see credits for attibutions and further copyright information.

  Follow gcmap on Facebook Follow gcmap on Twitter Follow gcmap on Google+ GCmap on LinkedIn

hCard Microformat

Geo Microformat